Погода в Трясиновском

Россия / Волгоградская область     49°46′10″N   42°58′54″E
темп.,
°C
ветер,
м/с
пор.,
м/с
влажн.,
%
обл.,
%
осадки,
мм/ч
давл.,
гПа
погр.,
м
23 апреля, пт
пт2300:00+12юв1167100 0.0 102211
03:00+11ю3471100 0.1 102275
06:00+10юз71186100 0.5 1022360
09:00+11зюз5681100 1.1 1022384
12:00+10зюз4488100 3.0 1022259
15:00+10зсз2289100 4.1 1021136
18:00+11с118282 0.1 1019260
21:00+8в12895 0.1 101911
24 апреля, сб
сб2400:00+8ю2288100 0.0 101715
03:00+8ююз3389100 0.0 101631
06:00+8ююз4983100 0.1 1015218
09:00+13юз811629 0.1 10141036
12:00+15зюз9115299 0.4 10121985
15:00+9з7108081 1.6 1014975
18:00+10з7116286 0.1 10141276
21:00+7з713580 0.3 1016569
25 апреля, вс
вс2500:00+5зюз714580 0.0 1017632
03:00+3з714630 0.0 1019674
06:00+3зюз613693 0.0 1020656
09:00+7з810481 0.0 10211302
12:00+10з68376 0.0 10211912
15:00+11з56345 0.0 10202215
18:00+10з3542100 0.0 1020313
21:00+7зюз1145100 0.0 102010
26 апреля, пн
пн2600:00+7ю1144100 0.0 102010
03:00+6ююв2249100 0.0 101919
06:00+6юв2457100 0.0 101982
09:00+10ююв3346100 0.0 1018772
12:00+13ю3338100 0.0 10161906
15:00+14ю343894 0.0 10142130
18:00+11ю566249 0.0 1013843
21:00+7ююз59835 0.0 1014244
27 апреля, вт
вт2700:00+6зсз49888 0.0 1014343
03:00+5зсз58846 0.0 1015521
06:00+4з27865 0.0 1016276
09:00+9з57525 0.0 10171292
12:00+11з7940100 0.0 10162366
15:00+12з7936100 0.0 10162442
18:00+11з474410 0.0 1016649
21:00+7зсз61057100 0.0 1018403